Location: Nied?wied?
(53.3665°N, 14.8184°E)
Time: 18:36:46
(UTC+00:00)

ISS - Pass Details

Date: 20 May 2021
Orbit: 417 x 422 km, 51.6° (Epoch: 14 June)

Event Time Altitude Azimuth Distance (km) Brightness Sun altitude
Rises 20:55:01 0° 265° (W) 2,366 0.4 -11.9°
Reaches altitude 10° 20:57:07 10° 263° (W) 1,503 -0.7 -12.0°
Maximum altitude 21:00:28 66° 180° (S) 463 -3.8 -12.3°
Drops below altitude 10° 21:03:50 10° 98° (E) 1,506 -1.3 -12.5°
Enters shadow 21:04:03 - 98° (E) 1,598 -1.1 -12.5°
